THORAD DELTA 1 DEB, 8164

Orbit data source: Space-Track

THORAD DELTA 1 DEB, 8164 is space debris in SSO originally from a launch on Fri, 15 Nov 1974 UTC launched from the Air Force Western Test Range (AFWTR). Debris objects in space refer to the collection of defunct objects orbiting the Earth. Examples of debris include non-operational satellites, rocket bodies, and fragments generated from explosions, collisions, or faulty payload assembly.

Loading next visibility...
Identifier
8164, 1974-089AE
Orbit
SSO
Country
Flag of USUS
Related business
Manufacturer
Unknown
Mission
Spacecraft
Bus & Motor
Unknown
Mass
Unknown
Launch date (UTC)
1974-11-15 (51 years ago)
Launch vehicle
Unknown
Launch site
Air Force Western Test Range (AFWTR)
Object type
Payload
Rocket body
Debris
Shape & HBR
Unknown
Radar Cross Section
Medium (>0.1 m² and <1 m²)

Expand to show TLE details & history
Last TLE update: 9 hours ago

TLE from 9 hours ago
0 THORAD DELTA 1 DEB
1 08164U 74089AE  25261.30861688 -.00000041  00000-0 -17745-5 0  9999
2 08164 101.6037  32.7430 0121114 136.2939 239.1299 12.28968167281210
Epoch: 2025-09-18T07:24Z
TLE epoch observation values (Epoch: 2025-09-18T07:24:24.498Z)
Latitude
13.91827°
Longitude
-78.73384°
Altitude
1,605.696 km
Speed
7.046 km/s
True Right ascension
01h 59m 21s
True Declination
13° 50' 48"
Sunlit
Object was in full shadow at epoch
Visualization orbit readout
Latitude
Unknown
Longitude
Unknown
Altitude
Unknown
Speed
Unknown
Apparent Right ascension
Unknown
Apparent Declination
Unknown
Sunlit
N/A
Visualization observer readout
Local Sidereal Time
09:08:54
Azimuth
Unknown
Elevation
Unknown
Doppler factor
Unknown
Orbital elements
Apogee altitude
1,647.32 km
Perigee altitude
1,455.247 km
Semi-major axis
7,929.42 km
Eccentricity
0.01211
Inclination
101.6037°
RAAN
32.743°
Arg. of periapsis
136.2939°
True anomaly
237.94792°
Mean anomaly
239.1299°
Eccentric anomaly
238.53799°
Mean motion
3.07384 °/min
Orbital period
117.12 mins
BSTAR
-0.0000017745
Loading maneuver chart data...
Computing Atmospheric mass density...
Loading historical data...
Loading historical data...
Loading historical data...
Loading historical data...
Loading historical data...
Loading historical data...
Loading historical data...

Documentation

Showing up to 5 results
|